This demonstration page uses our WeatherBlox Daily Observations layout. Learn more.

Left ArrowRight Arrow

Hourly Observations for January 17, 2016

Temp ( °F °C ) Dew Point ( °F °C ) Humidity (%) Winds ( mph kmh ) Pressure ( in mb ) Visibility ( mi km ) Precip ( " mm )
12:51 am 00:51 Clear 38 3.3 33 0.6 83 83 NE 3 6 30.09 1019 10 16 N/A
1:51 am 01:51 Clear 39 3.9 33 0.6 79 79 N N/A 30.09 1019 10 16 N/A
2:51 am 02:51 Clear 36 2.2 31 -0.6 82 82 ESE 3 6 30.10 1019 10 16 N/A
3:51 am 03:51 Clear 35 1.7 30 -1.1 82 82 ESE 6 9 30.10 1019 10 16 N/A
4:51 am 04:51 Clear 33 0.6 30 -1.1 89 89 E 5 7 30.11 1020 10 16 N/A
5:51 am 05:51 Clear 32 undefined 29 -1.7 88 88 E 6 9 30.14 1021 10 16 N/A
6:51 am 06:51 Clear 32 undefined 29 -1.7 88 88 ESE 5 7 30.16 1021 10 16 N/A
7:51 am 07:51 Sunny 32 undefined 29 -1.7 88 88 E 5 7 30.19 1022 10 16 N/A
8:51 am 08:51 Sunny 39 3.9 30 -1.1 70 70 ESE 5 7 30.20 1023 10 16 N/A
9:51 am 09:51 Sunny 43 6.1 32 undefined 65 65 SSE 6 9 30.21 1023 10 16 N/A
10:51 am 10:51 Sunny 48 8.9 30 -1.1 50 50 N N/A 30.21 1023 10 16 N/A
11:51 am 11:51 Sunny 53 11.7 30 -1.1 41 41 N N/A 30.18 1022 10 16 N/A
12:51 pm 12:51 Sunny 56 13.3 30 -1.1 37 37 VRB 3 6 30.12 1020 10 16 N/A
1:51 pm 13:51 Sunny 61 16.1 30 -1.1 31 31 WNW 9 15 30.08 1019 10 16 N/A
2:51 pm 14:51 Sunny 64 17.8 28 -2.2 26 26 WNW 13 20 30.06 1018 10 16 N/A
3:51 pm 15:51 Sunny 65 18.3 27 -2.8 24 24 WNW 17 28 30.06 1018 10 16 N/A
4:51 pm 16:51 Sunny 64 17.8 26 -3.3 24 24 WNW 16 26 30.06 1018 10 16 N/A
5:51 pm 17:51 Clear 60 15.6 25 -3.9 26 26 NW 15 24 30.09 1019 10 16 N/A
6:51 pm 18:51 Clear 57 13.9 26 -3.3 30 30 NNW 12 19 30.12 1020 10 16 N/A
7:51 pm 19:51 Clear 55 12.8 26 -3.3 33 33 NNW 10 17 30.14 1021 10 16 N/A
8:51 pm 20:51 Clear 46 7.8 28 -2.2 50 50 NNE 5 7 30.16 1021 10 16 N/A
9:51 pm 21:51 Clear 49 9.4 26 -3.3 41 41 NNW 5 7 30.15 1021 10 16 N/A
10:51 pm 22:51 Clear 47 8.3 26 -3.3 44 44 N N/A 30.16 1021 10 16 N/A
11:51 pm 23:51 Clear 39 3.9 26 -3.3 60 60 ESE 3 6 30.17 1022 10 16 N/A

Powered by AerisWeather